Showing default

HULIANWANG DIGUI-05, 62327

Orbit data source: Space-Track

HULIANWANG DIGUI-05, 62327 is a payload satellite owned by Zhongguo Xingwang (CN) in LEO that was launched on Mon, 16 Dec 2024 UTC via a CHANG ZHENG 5B/YZ-2 launch vehicle from the Wenchang Satellite Launch Center (WSC). Payload-class satellites include a variety of spacecraft equipped with specific instruments for various scientific and technological missions. These include communications satellites like Starlink; space stations such as the ISS; scientific satellites like the Hubble; Earth observation satellites from companies like Planet Labs, Umbra, and HawkEye 360; GPS; miniature CubeSats for education and research; and military/defense satellites.

Loading next visibility...
Identifier
62327, 2024-240E
Orbit
LEO
Country
Flag of CNCN / PRC
Related business
Manufacturer
CAST?
Mission
Operational Civil Communications
Bus & Motor
GUOWANG C, Unknown motor
Mass
~800 kg wet, ~800 kg dry
Launch date (UTC)
2024-12-16 (10 months ago)
Launch vehicle
CHANG ZHENG 5B/YZ-2
Launch site
Wenchang Satellite Launch Center (WSC)
Object type
Payload
Rocket body
Debris
Shape & HBR
Box + 2 Pan, 5.0 m
Radar Cross Section
5.935 m², Large (>1 m²)

Expand to show TLE details & history
Last TLE update: 4 hours ago

TLE from 4 hours ago
0 HULIANWANG DIGUI-05
1 62327U 24240E   25291.29743780  .00000050  00000-0  83425-4 0  9992
2 62327  86.5005  64.9523 0001810 103.5369 256.5966 13.24414724 40625
Epoch: 2025-10-18T07:08Z
TLE epoch observation values (Epoch: 2025-10-18T07:08:18.625Z)
Latitude
-0.00012°
Longitude
-69.15579°
Altitude
1,171.116 km
Speed
7.268 km/s
True Right ascension
04h 19m 48s
True Declination
0° 00' 00"
Sunlit
Object was in full shadow at epoch
Visualization orbit readout
Latitude
Unknown
Longitude
Unknown
Altitude
Unknown
Speed
Unknown
Apparent Right ascension
Unknown
Apparent Declination
Unknown
Sunlit
N/A
Visualization observer readout
Local Sidereal Time
06:05:03
Azimuth
Unknown
Elevation
Unknown
Doppler factor
Unknown
Orbital elements
Apogee altitude
1,166.389 km
Perigee altitude
1,163.659 km
Semi-major axis
7,543.161 km
Eccentricity
0.00018
Inclination
86.5005°
RAAN
64.9523°
Arg. of periapsis
103.5369°
True anomaly
256.57642°
Mean anomaly
256.5966°
Eccentric anomaly
256.58651°
Mean motion
3.31294 °/min
Orbital period
108.66 mins
BSTAR
0.000083425
Loading maneuver chart data...
Computing Atmospheric mass density...
Loading historical data...
Loading historical data...
Loading historical data...
Loading historical data...
Loading historical data...
Loading historical data...
Loading historical data...

Documentation

Showing up to 5 results
|